Notices

What's New in latest Release from April 7th, 2021:

- Updated Glossary, including Speed of Maximum Gust, and Total Hourly Precipitation

- Updated national and regional climate services offices contacts and prices information

- Addition of station inventory lists for 1981-2010, 1971-2000, and 1961-1990 Normals.

If you haven't already, please take our survey and provide feedback about our website: https://eccc.sondage-survey.ca/f/LanguageSelection.aspx?s=442ca660-fcf1-47c0-95a9-59707d6fd709

Hourly Data Report for March 12, 2004

SHERBROOKE A
QUEBEC

45°26'00.000" N
71°41'00.000" W
241.40 m
7028124
71610
YSC

Download Data

Hourly Data (March 2004)
Hourly Data Report for March 12, 2004
TIME
LST
Temp Definition
°C
Dew Point Definition
°C
Rel Hum Definition
%
Precip. Amount Definition
mm

Wind Dir Definition
10's deg

Wind Spd Definition
km/h
Visibility Definition
km
Stn Press Definition
kPa
Hmdx Definition


Wind Chill Definition


Weather Definition


00:00 -4.7 -10.8 62   9 4 15.0 97.73   -6  
01:00 -4.8 -10.8 63     0 15.0 97.63      
02:00 -3.5 -10.8 57   9 6 15.0 97.53   -6  
03:00 -3.9 -10.5 60   14 6 15.0 97.48   -7  
04:00 -4.1 -10.5 61   36 6 15.0 97.40   -7  
05:00 -3.9 -10.2 62   11 4 15.0 97.35   -6  
06:00 -4.2 -10.1 63     0 15.0 97.32      
07:00 -3.5 -9.6 63   11 4 15.0 97.28   -5  
08:00 -2.4 -9.3 59   7 4 24.1 97.25   -4 Cloudy
09:00 -0.5 -8.5 55   21 6 24.1 97.25   -3 Cloudy
10:00 1.2 -7.1 54   28 11 24.1 97.22     Mostly Cloudy
11:00 1.1 -5.4 62   30 17 16.1 97.20     Snow
12:00 0.5 -4.5 69   27 11 4.8 97.19     Snow
13:00 1.1 -4.3 67   28 9 12.9 97.14     Snow
14:00 1.1 -4.2 68   29 9 4.8 97.14     Snow
15:00 1.3 -4.6 65   29 15 19.3 97.19     Snow Showers
16:00 0.6 -4.3 70   27 13 2.4 97.26     Snow Showers
17:00 0.4 -4.4 70   27 15 2.4 97.32     Snow Showers
18:00 0.4 -4.7 69   26 28 11.3 97.39      
19:00 0.1 -5.0 69   26 22 15.0 97.45      
20:00 -0.1 -5.8 65   26 26 15.0 97.50   -6 Snow
21:00 -0.6 -6.0 67   26 26 6.4 97.55   -7 Snow
22:00 -1.0 -6.4 67   26 28 5.6 97.61   -8 Snow
23:00 -2.0 -7.4 66   27 30 2.9 97.71   -9 Snow

Notes on Data Quality.

Legend

  • E = Estimated
  • M = Missing
  • NA = Not Available*
  • [empty] = Indicates an unobserved value
Date modified: